Location: Burbank
(38.7788°N, 114.0429°W)
Time: 01:37:39
(UTC+00:00)

Tiros 1 despin weight - Pass Details

Date: 17 May 2026
Orbit: 554 x 591 km, 48.2° (Epoch: 6 June)

Event Time Altitude Azimuth Distance (km) Brightness Sun altitude
Rises 17:04:53 0° 303° (WNW) 2,735 ? 52.8°
Reaches altitude 10° 17:07:10 10° 307° (NW) 1,836 ? 53.2°
Maximum altitude 17:11:19 63° 29° (NNE) 617 ? 53.9°
Drops below altitude 10° 17:15:27 10° 111° (ESE) 1,827 ? 54.7°
Sets 17:17:43 0° 115° (ESE) 2,721 ? 55.1°
